Regional Weather Roundup
Issued by NWS

Home | Current Version | Previous Version | Graphics & Text | Print | Product List | Glossary On
Versions: 1 2 3 4 5 6 7 8 9 10 11 12 13 14 15 16 17 18 19 20 21 22 23 24 25 26 27 28 29 30 31 32 33 34 35 36 37 38 39 40 41 42 43 44 45 46 47 48 49 50
811
ASUS45 KCYS 041010
RWRWY

WYOMING REGIONAL WEATHER ROUNDUP
NATIONAL WEATHER SERVICE CHEYENNE WY
400 AM MDT WED MAY 04 2016

NOTE:  "FAIR" INDICATES FEW OR NO CLOUDS BELOW 12,000 FEET
WITH NO SIGNIFICANT WEATHER AND/OR OBSTRUCTIONS TO VISIBILITY.

WYZ001-041100-
YELLOWSTONE NATIONAL PARK

CITY           SKY/WX    TMP DP  RH WIND       PRES   REMARKS
LK YELLOWSTONE   N/A     27  23  85 CALM      30.35F
W YELLOWSTONE  NOT AVBL

$$
WYZ002>013-054>058-071-098>099-041100-
NORTHERN WYOMING

CITY           SKY/WX    TMP DP  RH WIND       PRES   REMARKS
JACKSON        FAIR      36  27  69 CALM      30.30S
CODY           FAIR      54  28  37 SW8       30.16S
GREYBULL       FAIR      50  35  56 E5        30.14S
WORLAND        FAIR      41  37  86 CALM      30.15S
SHERIDAN       FAIR      40  34  79 CALM      30.11F
BUFFALO        FAIR      50  31  48 W6        30.16F
GILLETTE       FAIR      48  38  68 S14       30.16S
HULETT         FAIR      43  34  70 S5        30.18S
NEWCASTLE      FAIR      45  34  65 NE5       30.19S

$$
WYZ014>020-022>026-101>103-041100-
CENTRAL WYOMING

CITY           SKY/WX    TMP DP  RH WIND       PRES   REMARKS
BIG PINEY      FAIR      32  23  69 CALM      30.31S
PINEDALE       FAIR      30  28  93 NW6       30.32S WCI  24
DUBOIS         FAIR      36  27  69 W13       30.30F WCI  27
LANDER         FAIR      46  30  53 W5        30.21F
RIVERTON       FAIR      43  36  76 NW8       30.23S
CASPER         FAIR      40  34  79 W9        30.23S WCI  34
DOUGLAS        FAIR      37  35  92 CALM      30.23S

$$
WYZ021-027>030-104>119-041100-
SOUTHERN WYOMING

CITY           SKY/WX    TMP DP  RH WIND       PRES   REMARKS
EVANSTON       FAIR      44  25  47 SE7       30.29S
KEMMERER         N/A     37  27  65 NW12      30.30S WCI  30
FORT BRIDGER   SUNNY     43  27  52 W8        30.31S
ROCK SPRINGS   FAIR      42  27  55 SE8       30.28S
DIXON          FAIR      36  29  75 NE7       30.32F WCI  31
RAWLINS        FAIR      32  28  85 CALM      30.30S
SARATOGA       FAIR      32  28  86 SE6       30.32S WCI  26
LARAMIE        FAIR      31  28  89 S6        30.31S WCI  25
CHEYENNE       FAIR      40  32  73 NW9       30.26S WCI  34
TORRINGTON     FAIR      41  37  86 W5        30.18S
PINE BLUFFS    FAIR      36  34  93 W3        30.23S

$$




USA.gov is the U.S. government's official web portal to all federal, state and local government web resources and services.